Temperature
21 21 21 20 20 20 22 24 24 24 24 24 23 23 22 21 21 19 20 20 20 20 20 19 19 19 19 19 19 19 19 19 19 19 19 19 19 19 19 19 18 18 18 18 18 18 18 18 18
22 21 21 20 20 21 22 24 24 24 24 24 23 23 22 21 20 20 19 20 20 20 20 19 19 19 19 19 19 19 19 19 19 19 19 19 19 19 19 19 18 18 18 18 18 18 18 18 18
22 21 21 20 21 22 23 24 24 25 25 24 23 23 22 21 20 20 20 20 20 20 20 20 20 19 19 19 19 19 19 19 19 19 19 19 19 19 19 19 18 18 18 18 18 18 18 18 18
22 21 21 21 22 24 24 24 25 25 24 24 23 22 21 21 21 20 20 20 20 20 20 20 20 19 19 19 19 19 19 19 19 19 19 19 19 19 19 18 18 18 18 18 18 18 18 18 18
22 21 21 21 24 25 25 25 25 24 24 23 22 21 21 21 21 20 20 20 20 20 20 20 20 19 19 19 19 19 19 19 19 19 19 19 18 18 19 19 18 18 18 18 18 18 18 18 18
22 21 21 22 25 25 26 26 25 24 23 23 22 21 20 21 21 20 20 20 20 20 20 20 20 19 19 19 19 19 19 19 19 19 19 19 19 18 18 18 18 18 18 18 18 18 18 18 18
22 21 22 23 25 25 26 26 25 24 23 23 22 21 20 20 20 20 20 20 20 20 20 20 19 19 19 19 19 19 19 19 19 19 19 19 18 18 19 18 18 18 18 18 18 18 18 18 18
24 22 23 24 25 25 26 26 25 25 24 23 23 21 20 20 20 20 20 20 20 20 20 20 20 19 19 19 19 19 19 19 19 19 19 18 18 18 18 18 18 18 18 18 18 18 18 18 18
25 22 23 24 25 25 26 26 25 25 24 23 23 22 21 21 20 20 20 20 20 20 20 20 20 19 19 19 19 19 19 19 19 18 18 18 18 18 18 18 18 18 18 18 18 18 18 18 18
25 23 24 26 26 25 26 26 25 25 23 23 22 22 21 21 21 20 20 20 20 20 20 20 20 19 19 19 19 19 19 19 19 18 18 18 18 18 18 18 18 18 18 18 18 18 18 18 18
26 25 26 27 27 27 26 26 26 24 23 22 22 21 21 21 21 20 20 20 20 20 20 20 20 19 19 19 19 19 19 19 18 18 18 18 18 18 18 18 18 18 18 18 18 18 18 18 18
27 27 28 28 28 27 27 27 26 25 24 23 23 22 22 21 21 21 20 20 20 20 20 20 20 19 19 19 19 19 19 19 18 18 18 18 18 18 18 18 18 18 18 18 18 18 18 18 18
27 27 28 28 28 28 27 26 26 25 24 24 23 22 22 22 21 21 20 20 20 20 20 20 20 19 19 19 19 19 19 18 18 18 18 18 18 18 18 18 18 18 18 18 18 18 18 18 18
27 28 28 28 28 28 27 26 25 24 24 23 23 22 22 22 21 21 20 20 20 20 20 20 20 19 19 19 19 19 19 19 18 18 18 18 18 18 18 18 18 18 18 18 18 18 18 18 17
28 27 27 27 28 27 26 25 25 25 24 23 23 22 22 22 22 21 21 21 20 20 20 20 20 19 19 19 19 19 19 18 18 18 18 18 18 18 18 18 18 18 18 18 18 18 18 17 17
26 26 25 27 27 27 26 24 25 25 24 23 23 22 22 22 22 21 21 21 21 20 20 20 20 19 19 19 19 19 19 19 19 19 18 18 18 18 18 18 18 18 18 18 18 18 17 17 17
25 24 25 27 28 27 25 24 25 25 24 24 23 23 22 22 22 22 21 21 21 20 20 20 20 20 19 19 19 19 19 19 19 19 18 18 18 18 18 18 18 18 18 18 18 18 18 17 17
25 25 26 26 28 28 26 25 25 25 25 24 23 23 23 22 22 22 22 21 21 21 20 20 20 20 19 19 19 19 19 19 19 19 19 18 18 18 18 18 18 18 18 18 18 18 17 17 17
26 26 26 27 28 27 26 25 25 25 25 24 24 23 23 23 23 22 22 21 21 21 20 20 20 20 20 19 19 19 19 19 19 19 19 19 18 18 18 18 18 18 18 18 18 18 17 17 17
27 26 27 27 28 27 26 25 25 25 25 25 24 24 23 23 23 22 22 22 21 21 21 20 20 20 20 19 19 19 19 19 19 19 19 19 18 18 18 18 18 18 18 18 18 18 18 17 17
27 26 27 27 27 27 26 25 25 25 26 25 25 24 24 24 23 23 22 22 22 21 21 21 20 20 20 19 19 19 19 19 19 19 19 19 18 18 18 18 18 18 18 18 18 18 18 18 17
27 28 29 28 26 25 25 23 24 24 24 25 25 24 24 24 23 23 23 22 22 22 21 21 21 20 20 20 19 19 19 19 19 19 19 19 18 18 18 18 18 18 18 18 18 18 18 18 18
28 29 28 28 25 24 24 23 23 24 24 24 24 24 24 24 24 24 23 23 22 22 22 21 21 21 20 20 20 19 19 19 19 19 19 19 18 18 18 18 18 18 18 18 18 18 18 18 18
29 27 26 23 22 23 24 24 23 23 24 24 25 25 25 24 24 24 24 23 23 22 22 21 21 21 20 20 20 19 19 19 19 19 19 18 18 18 18 18 18 18 18 18 18 18 18 18 18
28 24 23 23 22 23 24 24 23 25 25 25 25 25 25 25 24 24 23 23 23 22 22 22 21 21 21 20 20 20 19 19 19 19 19 19 18 18 18 18 18 18 18 18 18 18 18 18 18
27 24 23 23 23 23 24 24 24 26 26 27 26 26 25 25 25 24 24 23 23 23 22 22 22 21 21 20 20 20 20 19 19 19 19 19 19 18 18 18 18 18 18 18 18 18 18 18 18
27 24 23 22 22 22 23 24 25 25 25 25 25 25 24 24 25 25 24 24 23 23 22 22 22 21 21 20 20 20 20 20 19 19 19 19 19 18 18 18 18 18 18 18 18 18 18 18 18
27 25 22 22 22 22 23 24 23 24 24 24 24 24 24 24 24 24 24 24 23 23 23 22 22 22 21 21 20 20 20 20 19 19 19 19 18 18 18 18 18 18 18 18 18 17 17 17 17
27 26 23 21 21 22 23 23 25 24 23 23 24 24 24 24 24 24 24 24 23 23 22 22 22 22 21 21 20 20 20 20 19 19 19 19 18 18 18 18 18 18 18 18 17 17 17 17 17
27 26 23 23 22 21 21 22 25 24 24 24 24 24 25 25 25 24 24 23 23 23 22 22 22 22 21 21 21 20 20 20 19 19 19 19 18 18 18 18 18 18 18 18 18 18 17 17 17
Wind_Speed
9 6 2 0 2 4 4 4 5 5 5 7 10 10 9 7 5 6 3 8 8 7 7 9 10 10 10 10 10 10 10 11 12 12 12 12 12 13 13 13 13 13 13 13 13 13 13 13 14
7 4 1 1 3 4 4 4 7 8 9 10 10 11 9 7 7 8 5 8 8 8 8 10 11 10 10 10 9 10 10 10 11 11 11 11 11 12 12 12 12 12 12 12 12 12 12 12 12
6 2 0 2 2 4 4 4 8 9 9 7 6 6 5 5 6 6 7 10 8 7 8 10 11 10 10 9 9 9 10 10 10 10 11 11 11 11 11 11 11 11 11 11 11 11 11 11 11
3 1 1 3 3 3 6 6 9 10 9 8 8 6 5 5 4 8 12 11 9 6 8 10 10 10 9 9 9 9 9 9 9 9 10 10 10 10 10 10 11 11 11 11 11 11 11 10 11
1 1 2 2 3 4 6 8 10 9 5 8 10 7 5 4 10 13 12 11 9 6 6 9 10 9 9 9 8 8 8 8 9 9 9 9 10 10 10 10 10 10 10 10 10 10 10 10 10
1 1 3 3 6 6 6 9 11 12 11 10 10 8 4 6 10 10 11 9 8 7 6 7 9 9 8 8 8 7 7 7 8 9 8 9 9 9 9 9 9 9 10 10 10 10 10 10 10
2 2 3 5 5 6 7 8 9 11 10 7 7 6 4 5 7 8 9 9 7 7 6 5 6 7 7 8 8 7 7 6 8 10 9 9 9 8 8 8 9 9 9 10 10 9 9 9 9
4 2 2 3 6 6 7 8 8 10 8 9 7 7 5 6 8 8 8 7 6 5 5 4 4 5 5 6 7 6 7 7 9 10 9 8 8 8 8 8 8 9 9 9 9 9 9 9 9
3 3 3 4 7 6 8 10 7 7 10 7 6 7 9 11 10 8 7 5 4 5 3 3 3 4 5 6 6 5 6 6 7 8 8 7 6 6 6 7 8 8 8 8 9 9 9 9 9
4 4 6 6 8 8 9 10 8 7 11 9 10 11 12 10 9 8 7 6 5 4 3 3 3 3 4 5 5 4 4 4 4 5 6 5 4 4 5 7 7 7 6 6 8 8 9 8 6
5 6 4 5 8 10 9 8 6 10 8 11 14 14 12 10 8 8 6 6 5 4 4 3 3 3 4 3 4 3 3 3 3 4 4 4 3 3 4 4 4 4 5 3 5 6 5 5 5
4 3 5 6 8 9 9 8 7 8 10 14 16 15 12 11 9 8 7 5 5 4 4 3 3 3 4 4 3 4 3 3 3 3 4 4 2 2 3 3 3 3 3 3 4 4 4 4 5
4 2 4 8 9 9 11 10 9 10 14 15 15 13 12 11 9 7 6 6 6 5 4 3 4 4 3 3 3 3 3 3 3 3 4 5 4 3 3 3 3 3 3 4 4 4 4 4 4
2 3 3 7 8 9 12 9 9 11 15 15 14 12 12 11 9 7 6 6 5 5 4 3 4 4 4 3 3 3 4 4 3 3 4 5 5 4 3 3 3 3 4 5 5 4 4 3 3
3 4 3 4 6 7 11 7 8 14 15 14 13 12 11 10 9 9 8 7 6 6 5 5 4 4 4 3 3 4 3 4 3 3 4 5 5 5 4 3 3 3 5 6 5 4 3 3 3
4 4 1 4 5 5 9 6 9 13 15 13 12 12 10 8 9 9 9 7 6 6 5 5 5 4 4 3 3 3 4 4 3 3 4 4 5 6 5 4 3 3 5 4 4 3 3 2 2
4 1 3 4 4 6 6 6 10 11 14 13 12 11 10 9 8 8 9 8 7 6 6 5 4 4 4 4 3 3 4 3 3 3 3 4 5 6 5 4 3 4 4 3 4 3 3 3 2
4 2 2 4 3 5 5 7 12 12 13 13 12 11 10 10 10 10 9 9 8 6 6 5 4 4 4 3 3 2 2 2 2 2 3 4 4 5 6 4 4 4 4 3 3 3 2 3 3
4 2 3 4 3 3 5 9 12 12 12 11 10 11 11 10 9 10 10 9 8 6 6 5 5 4 3 2 2 2 2 2 1 1 3 4 4 5 5 4 3 3 3 3 4 3 3 2 2
3 2 2 2 1 3 4 6 9 12 14 15 14 13 12 10 9 9 9 9 8 8 7 6 5 5 4 3 2 2 3 2 2 1 2 3 4 5 5 4 3 3 3 3 3 3 2 2 2
3 5 3 3 1 3 5 2 5 6 7 10 11 12 12 14 13 12 11 9 9 9 8 7 5 5 4 4 3 3 3 2 1 1 1 1 3 4 5 5 4 4 4 4 4 4 4 3 2
4 6 5 4 4 1 3 2 6 7 7 9 10 10 12 13 12 12 11 11 11 10 8 7 6 6 5 5 5 5 4 3 2 1 1 1 2 3 4 4 4 4 4 4 4 4 3 4 3
5 3 4 3 3 2 2 4 5 5 8 10 11 12 12 13 14 14 13 13 11 10 9 8 7 6 5 5 5 5 3 2 1 1 1 1 0 2 3 4 3 3 3 3 3 3 4 4 4
4 6 7 6 5 1 3 4 5 7 10 10 10 12 13 13 14 13 11 10 9 9 8 8 7 6 5 5 5 5 5 4 3 2 2 1 0 1 1 2 2 2 3 3 3 3 3 3 4
5 7 4 5 5 4 4 2 7 8 9 10 12 12 12 12 12 12 11 11 10 10 10 9 8 7 6 6 5 6 6 5 4 4 3 2 1 1 2 2 2 2 3 3 3 3 3 3 3
2 9 7 4 3 4 4 2 6 5 5 7 9 10 11 11 11 12 13 12 12 12 10 10 9 8 6 6 6 5 5 4 3 4 3 3 3 2 2 2 2 2 3 3 3 2 3 2 3
3 3 8 7 1 1 4 3 5 4 4 6 8 9 9 9 10 11 11 11 12 12 11 11 10 8 7 7 6 4 4 4 4 3 3 2 2 2 2 2 2 1 2 2 2 2 2 2 2
7 7 7 6 4 2 3 2 4 3 3 4 7 8 8 7 8 9 9 10 10 10 9 9 9 8 7 7 6 5 4 4 4 4 4 3 2 2 2 1 1 1 1 2 2 2 2 2 2
0 2 5 5 6 6 3 6 6 9 8 7 7 8 9 9 9 9 9 9 9 8 8 8 8 7 6 6 5 5 4 4 4 4 4 3 3 2 2 2 2 2 2 1 1 2 2 2 2
5 5 7 5 4 6 5 7 5 8 8 8 6 7 8 9 9 8 9 9 8 8 8 8 7 7 7 6 5 5 4 4 4 4 4 3 3 3 3 2 2 2 2 2 2 3 2 2 3
Wind_Direction
161 157 146 107 43 50 74 85 99 88 71 65 76 83 83 65 92 126 159 142 144 145 148 136 127 120 116 114 113 113 112 113 115 116 119 122 127 133 137 139 142 145 146 149 151 153 156 157 158
156 166 157 33 72 78 63 87 91 100 120 112 86 84 79 73 87 114 125 145 140 138 143 137 132 127 121 119 118 115 118 119 119 120 121 124 127 132 137 141 144 148 151 154 156 157 159 161 163
161 188 100 46 80 124 118 105 104 104 107 100 87 64 69 95 105 127 148 146 133 131 139 139 137 132 126 122 123 122 123 124 124 125 128 131 132 136 142 146 149 153 158 159 160 161 162 164 165
147 158 24 70 93 118 128 125 117 106 82 74 90 68 59 75 106 129 138 139 130 134 142 142 135 135 133 130 128 129 130 131 132 132 134 136 138 141 144 150 155 159 162 164 164 165 166 165 163
103 103 54 68 95 104 121 120 112 101 91 87 90 88 72 68 106 122 135 138 135 138 147 148 140 138 139 139 138 138 136 138 139 141 143 143 143 146 147 150 155 161 165 168 167 168 167 166 166
100 91 88 102 106 101 112 115 107 102 109 104 97 94 91 112 117 128 138 140 140 144 148 151 149 146 147 147 146 147 145 145 150 151 150 150 148 146 150 153 155 161 164 166 169 171 172 172 173
155 125 147 140 117 115 120 116 112 117 119 122 120 100 117 126 131 130 131 136 138 144 144 149 157 154 155 158 155 148 147 142 146 151 151 152 152 153 157 160 160 160 162 167 172 176 177 173 173
173 117 108 123 122 122 123 108 115 121 116 124 117 120 146 162 140 128 122 122 128 135 141 153 160 164 165 162 158 153 140 132 138 144 147 152 160 164 168 168 165 163 163 167 172 178 180 172 171
148 90 143 160 141 141 130 112 108 100 106 105 101 121 143 144 128 115 112 107 116 130 144 151 156 170 176 164 153 152 145 141 138 141 146 153 162 166 171 170 166 165 166 169 170 176 177 170 168
141 144 185 172 148 138 132 128 130 109 104 100 104 114 128 132 128 124 128 129 130 141 150 150 152 155 162 150 141 146 146 150 153 154 157 166 168 169 161 165 167 165 166 171 171 173 171 165 162
153 160 161 145 143 132 130 131 125 124 123 140 139 141 140 133 131 131 133 139 147 153 143 140 148 146 139 131 135 147 156 154 153 161 167 164 158 156 147 150 159 157 159 162 161 168 162 162 160
120 154 149 143 139 134 137 130 117 129 145 148 145 145 141 140 142 142 141 138 140 130 131 127 123 124 130 132 134 144 142 136 139 158 159 146 131 124 124 127 140 142 148 137 134 139 144 148 155
104 123 127 137 137 135 123 121 120 125 136 141 140 141 143 146 146 149 147 140 135 130 124 122 109 116 121 121 131 129 131 129 137 152 154 145 132 128 131 129 135 136 143 137 128 130 137 141 143
160 119 123 137 137 133 122 123 116 139 141 143 145 148 151 151 149 148 143 140 143 142 134 126 109 113 113 115 119 125 135 143 137 140 143 140 138 130 128 126 130 133 138 141 134 134 131 131 132
84 75 58 141 138 135 115 110 141 152 145 146 150 152 152 154 153 155 158 157 154 150 143 140 129 115 107 108 119 122 131 136 128 130 132 132 140 139 135 129 128 134 138 132 126 119 118 124 130
47 61 45 246 155 153 123 152 166 155 148 151 155 156 155 158 161 162 158 153 149 140 141 148 137 126 123 116 113 114 115 121 125 133 133 138 145 149 143 138 141 138 131 129 127 127 127 130 139
21 113 227 255 198 156 133 160 170 162 153 156 159 161 160 160 163 163 160 155 152 146 142 138 129 132 134 125 116 115 114 115 128 131 137 145 148 147 142 144 149 136 128 130 140 138 145 144 154
238 224 225 219 218 143 146 159 164 168 161 162 165 166 166 168 174 167 162 157 151 145 139 138 130 133 130 116 103 96 97 98 108 122 135 140 142 142 138 134 140 139 133 136 139 145 149 158 168
180 197 238 228 198 139 165 155 167 169 166 166 170 171 172 175 174 164 160 156 149 147 143 145 141 146 131 115 117 117 127 129 115 137 140 141 141 137 138 136 139 139 146 160 156 149 151 168 154
166 197 241 327 55 119 138 154 171 173 180 178 178 179 178 172 166 166 162 160 160 162 159 156 153 149 148 151 149 140 136 141 151 160 129 133 140 148 149 149 151 150 153 157 159 151 161 193 168
209 190 194 157 55 57 101 100 175 190 181 181 183 181 178 177 174 173 169 169 167 169 169 165 161 153 154 142 120 104 83 62 60 81 110 160 155 154 158 164 164 161 164 177 185 177 174 195 219
237 220 174 157 126 241 124 177 236 196 187 188 187 185 185 182 176 175 173 174 176 177 169 162 161 158 157 148 140 139 139 152 183 180 175 165 157 156 163 162 170 170 174 182 197 191 188 181 205
214 185 139 162 133 80 69 133 257 190 191 202 195 191 189 184 178 179 180 179 178 173 169 166 161 163 163 156 154 148 145 169 158 136 140 150 163 171 170 171 160 166 180 190 199 194 197 196 199
143 67 41 43 69 47 243 154 239 211 199 196 197 193 190 185 181 181 177 169 169 169 168 165 163 173 173 164 156 154 163 170 155 156 169 199 254 265 224 187 181 184 192 197 200 200 203 206 206
84 89 39 8 13 265 269 164 239 226 199 188 191 189 184 177 175 173 170 171 172 173 172 171 170 178 180 171 172 175 178 174 175 177 176 174 195 247 250 217 205 205 210 210 199 197 215 214 207
190 133 148 179 227 281 323 232 264 238 194 173 169 169 167 168 172 173 174 174 175 175 174 173 176 180 180 178 184 182 178 178 183 181 177 186 205 220 233 218 212 216 211 213 198 203 219 216 216
150 155 158 140 171 332 294 300 333 31 87 122 131 134 151 161 168 172 172 173 176 176 178 177 175 176 178 180 179 175 170 171 177 178 176 191 208 210 219 224 210 207 208 204 190 204 220 216 225
155 156 105 119 145 243 287 246 220 212 178 141 144 150 156 157 160 164 167 174 177 176 173 169 169 175 179 181 182 182 179 177 174 165 171 182 201 202 196 216 226 239 239 216 193 208 219 199 228
53 105 117 126 148 156 214 260 214 189 182 171 170 164 162 159 166 167 167 165 160 157 163 165 167 166 172 176 179 179 178 178 175 179 190 196 203 198 190 202 214 226 242 239 210 226 208 213 236
172 180 148 157 203 169 171 256 234 176 167 167 170 162 160 158 162 165 160 153 155 160 164 166 168 169 177 177 176 186 182 174 182 196 206 202 204 207 209 211 216 219 223 217 216 236 236 227 236
Height
1505 1505 1506 1507 1508 1514 1515 1508 1502 1502 1503 1503 1502 1503 1506 1510 1514 1522 1519 1518 1518 1517 1517 1517 1516 1515 1515 1514 1513 1513 1513 1513 1513 1514 1515 1516 1517 1518 1519 1520 1521 1523 1524 1526 1527 1528 1530 1532 1533
1506 1506 1508 1508 1513 1524 1518 1506 1504 1503 1504 1504 1505 1506 1508 1512 1513 1516 1517 1519 1519 1518 1518 1517 1517 1516 1516 1515 1514 1514 1514 1514 1514 1515 1516 1517 1517 1518 1519 1521 1522 1523 1524 1526 1527 1529 1530 1531 1533
1507 1507 1509 1510 1515 1521 1516 1506 1504 1503 1504 1503 1506 1508 1511 1514 1515 1516 1517 1519 1519 1519 1519 1518 1518 1517 1517 1516 1515 1515 1515 1515 1515 1516 1516 1517 1518 1519 1520 1521 1522 1523 1525 1526 1527 1529 1530 1531 1533
1508 1509 1511 1514 1516 1508 1505 1504 1503 1504 1506 1506 1507 1511 1514 1516 1516 1517 1518 1519 1520 1520 1519 1519 1519 1518 1517 1517 1516 1516 1515 1515 1516 1516 1517 1518 1519 1520 1521 1522 1523 1524 1525 1526 1527 1529 1530 1531 1533
1508 1509 1514 1518 1512 1505 1502 1502 1503 1505 1507 1509 1509 1514 1517 1519 1518 1519 1519 1520 1520 1520 1520 1520 1520 1519 1518 1517 1517 1516 1516 1515 1515 1516 1517 1518 1519 1520 1521 1522 1523 1524 1524 1526 1527 1529 1530 1531 1533
1509 1510 1520 1523 1512 1505 1503 1503 1504 1507 1510 1511 1512 1515 1520 1521 1520 1520 1521 1521 1521 1521 1521 1521 1520 1520 1519 1518 1517 1517 1516 1514 1514 1515 1517 1519 1520 1521 1522 1522 1523 1524 1524 1525 1527 1528 1529 1531 1533
1509 1511 1516 1515 1511 1508 1505 1504 1505 1508 1510 1512 1513 1516 1521 1522 1522 1522 1522 1522 1522 1522 1522 1521 1521 1520 1519 1519 1518 1517 1515 1512 1511 1513 1517 1519 1520 1521 1522 1522 1523 1524 1524 1525 1526 1528 1529 1531 1532
1506 1510 1513 1512 1512 1509 1505 1504 1507 1508 1511 1513 1513 1516 1520 1522 1522 1523 1523 1523 1523 1523 1523 1522 1522 1521 1520 1520 1519 1518 1516 1513 1512 1514 1517 1519 1520 1521 1522 1522 1523 1524 1524 1525 1526 1527 1529 1530 1532
1505 1513 1517 1510 1509 1507 1504 1504 1508 1509 1511 1513 1514 1515 1518 1521 1523 1523 1524 1524 1524 1524 1524 1523 1522 1521 1521 1520 1520 1519 1518 1517 1516 1517 1519 1520 1520 1521 1522 1522 1523 1523 1524 1524 1525 1526 1528 1530 1532
1502 1513 1508 1500 1500 1502 1503 1504 1507 1511 1513 1515 1517 1519 1520 1522 1523 1523 1524 1524 1524 1524 1524 1524 1523 1522 1521 1521 1521 1520 1520 1519 1519 1520 1521 1521 1521 1521 1521 1522 1523 1523 1524 1524 1525 1526 1528 1530 1532
1498 1503 1498 1497 1498 1499 1502 1505 1507 1510 1514 1515 1516 1519 1521 1522 1523 1524 1524 1524 1524 1524 1524 1524 1523 1522 1522 1521 1521 1521 1521 1521 1521 1522 1522 1522 1521 1521 1522 1522 1523 1524 1524 1524 1525 1526 1528 1530 1532
1497 1496 1496 1498 1498 1499 1502 1505 1508 1509 1513 1514 1515 1518 1520 1522 1523 1524 1524 1525 1525 1525 1525 1524 1524 1523 1523 1523 1522 1523 1522 1522 1522 1522 1523 1522 1522 1522 1522 1523 1523 1524 1525 1525 1526 1527 1529 1531 1533
1497 1497 1496 1497 1498 1499 1502 1505 1508 1511 1513 1515 1517 1519 1520 1522 1523 1524 1525 1525 1525 1525 1525 1525 1524 1524 1524 1524 1523 1523 1523 1523 1523 1523 1524 1524 1523 1523 1523 1524 1525 1525 1526 1526 1527 1528 1530 1532 1534
1497 1497 1498 1498 1499 1501 1503 1507 1509 1513 1514 1516 1518 1519 1521 1522 1523 1524 1525 1525 1525 1525 1525 1525 1525 1525 1525 1525 1524 1524 1525 1525 1525 1525 1525 1525 1525 1524 1525 1525 1526 1527 1527 1528 1529 1530 1531 1532 1534
1497 1500 1501 1500 1500 1503 1505 1512 1510 1512 1514 1516 1518 1520 1521 1522 1523 1523 1524 1524 1525 1525 1526 1526 1526 1526 1526 1526 1526 1525 1525 1525 1525 1525 1526 1526 1526 1526 1526 1527 1527 1528 1529 1530 1530 1531 1532 1533 1534
1501 1507 1513 1503 1500 1503 1508 1520 1511 1512 1513 1516 1518 1520 1521 1522 1523 1523 1524 1524 1525 1525 1526 1526 1526 1526 1526 1526 1526 1526 1526 1526 1526 1526 1526 1527 1527 1527 1527 1528 1528 1529 1530 1531 1531 1532 1533 1534 1534
1512 1520 1517 1507 1498 1501 1507 1516 1511 1512 1513 1515 1517 1519 1521 1522 1523 1523 1524 1525 1525 1525 1526 1526 1527 1526 1526 1527 1527 1527 1527 1526 1527 1527 1527 1527 1528 1528 1528 1528 1529 1530 1531 1532 1532 1533 1534 1534 1535
1521 1519 1515 1511 1500 1501 1507 1510 1510 1511 1513 1514 1516 1518 1519 1520 1522 1523 1524 1525 1525 1526 1526 1527 1527 1527 1527 1526 1526 1526 1526 1527 1527 1527 1528 1528 1528 1529 1529 1529 1530 1531 1532 1532 1533 1533 1534 1535 1535
1506 1511 1514 1506 1498 1502 1507 1510 1510 1511 1512 1514 1516 1517 1518 1519 1521 1522 1524 1525 1525 1526 1526 1527 1527 1527 1527 1526 1526 1526 1526 1527 1527 1528 1528 1529 1529 1529 1530 1530 1531 1532 1532 1532 1533 1534 1534 1535 1536
1504 1511 1511 1504 1498 1502 1509 1511 1509 1509 1510 1510 1512 1514 1516 1518 1520 1522 1523 1524 1524 1525 1525 1526 1526 1527 1527 1527 1527 1527 1527 1527 1528 1528 1528 1529 1529 1530 1530 1531 1531 1532 1532 1532 1533 1534 1534 1534 1535
1503 1508 1508 1509 1503 1503 1510 1518 1513 1510 1510 1511 1512 1512 1514 1516 1518 1520 1521 1522 1523 1524 1525 1525 1526 1527 1527 1528 1528 1528 1528 1528 1528 1529 1529 1529 1530 1530 1531 1531 1531 1531 1532 1532 1533 1533 1534 1534 1534
1507 1496 1496 1502 1512 1521 1517 1537 1520 1512 1511 1510 1510 1512 1513 1514 1516 1518 1519 1520 1522 1523 1524 1525 1526 1526 1527 1527 1528 1528 1528 1529 1529 1529 1529 1529 1530 1530 1531 1531 1531 1530 1531 1532 1532 1533 1533 1533 1533
1495 1489 1494 1500 1511 1522 1520 1533 1526 1512 1513 1509 1507 1508 1510 1511 1513 1515 1517 1518 1520 1522 1524 1525 1526 1526 1527 1528 1528 1529 1529 1529 1530 1530 1530 1530 1530 1530 1530 1531 1531 1531 1531 1531 1532 1532 1532 1532 1532
1486 1494 1501 1510 1520 1536 1524 1530 1528 1514 1507 1504 1504 1505 1506 1508 1510 1513 1515 1518 1520 1522 1523 1524 1525 1526 1527 1528 1528 1529 1529 1529 1530 1530 1529 1530 1530 1530 1530 1530 1530 1530 1530 1530 1531 1531 1531 1531 1531
1490 1512 1535 1539 1546 1542 1522 1525 1521 1500 1496 1497 1499 1501 1503 1506 1508 1511 1514 1516 1518 1520 1522 1523 1524 1525 1526 1527 1528 1528 1529 1529 1529 1529 1529 1529 1529 1529 1529 1529 1529 1529 1529 1529 1530 1529 1529 1529 1529
1494 1508 1536 1550 1551 1542 1525 1526 1511 1493 1491 1493 1495 1499 1502 1505 1507 1509 1511 1514 1516 1518 1520 1522 1523 1524 1525 1527 1527 1528 1528 1529 1529 1529 1529 1529 1529 1529 1529 1529 1528 1528 1528 1528 1528 1527 1527 1527 1527
1495 1505 1509 1530 1536 1543 1534 1519 1505 1494 1494 1494 1496 1500 1502 1504 1505 1507 1510 1512 1515 1517 1518 1520 1521 1523 1524 1526 1527 1527 1527 1527 1527 1528 1528 1528 1528 1528 1528 1527 1527 1527 1526 1526 1526 1525 1525 1525 1525
1484 1493 1512 1527 1544 1551 1537 1527 1522 1506 1501 1497 1497 1499 1501 1503 1505 1506 1509 1511 1513 1515 1517 1519 1521 1522 1524 1525 1525 1526 1526 1527 1527 1526 1526 1526 1526 1526 1526 1526 1526 1525 1524 1524 1524 1523 1523 1523 1522
1489 1495 1506 1521 1528 1544 1547 1532 1499 1498 1496 1496 1496 1497 1499 1501 1503 1505 1507 1509 1512 1514 1516 1517 1519 1521 1522 1523 1524 1524 1525 1525 1525 1525 1525 1525 1525 1525 1524 1524 1524 1523 1523 1522 1522 1522 1521 1521 1521
1480 1488 1501 1519 1526 1529 1536 1526 1488 1490 1490 1492 1494 1496 1497 1499 1501 1504 1505 1507 1510 1512 1514 1516 1518 1519 1520 1521 1522 1523 1523 1524 1524 1524 1524 1524 1523 1523 1523 1522 1522 1522 1521 1521 1520 1520 1519 1519 1518